Location: Saratoga Springs
(43.0831°N, 73.7850°W)
Time: 20:56:31
(UTC-04:00)

Vanguard 2 Rocket - Pass Details

Date: 23 April 2024
Orbit: 556 x 3304 km, 32.9° (Epoch: 21 May)

Event Time Altitude Azimuth Distance (km) Brightness Sun altitude
Rises 00:09:53 0° 261° (W) 6,517 11.3 -33.3°
Reaches altitude 10° 00:13:53 10° 259° (WSW) 5,752 10.9 -33.5°
Maximum altitude 00:32:27 61° 185° (S) 3,594 9.4 -34.0°
Drops below altitude 10° 00:50:38 10° 111° (ESE) 5,648 10.7 -34.2°
Sets 00:54:31 0° 108° (ESE) 6,398 11.1 -34.2°
